sat.trackr.live / text

‹ back to catalog

GAOFEN-1 03

NORAD 43260 · 2018-031B

PAYLOAD ACTIVE UNKNOWN

§ Identity

Operator
Country
PRC
Launch date
2018-03-31
Launch site
TAISC
Launch vehicle
Mass (kg)
RCS (m²)

Purposes: earth_obs

External: N2YO · Heavens-Above · Gunter

§ Orbital elements

Epoch: 2026-09-20T05:21:40.620384Z

Period
97.53 min
Inclination
98.0423°
Eccentricity
0.0003983
Mean motion
14.76452089 rev/d
Perigee alt
637.8 km
Apogee alt
643.3 km
Semi-major
7,018.7 km
B*
5.8580e-5
RAAN
325.2824°
Arg perigee
113.6947°
Mean anomaly
246.4681°
Rev number
45,671

§ Raw data

GAOFEN-1 031 43260U 18031B   26263.22338681  .00000356  00000+0  58580-4 0  99932 43260  98.0423 325.2824 0003983 113.6947 246.4681 14.76452089456713

JSON: /api/v1/satellites/43260 · /tle

For live sub-satellite position, see the globe view (requires WebGL).

§ Visibility from observer

Set your observer location to see the next 7 days of passes ≥ 10°. The values pass through the URL so the page stays shareable.

No JS? Fill the form by hand. The geolocation button needs JavaScript.